When you browse on this site, cookies collect data to enhance your experience and personalize the content and advertising you see.
Visit our Privacy Policy to learn more. By continuing to use the site, you agree to this use of cookies and data.
  • In Czech Republic
  • List of Countries
  • For 7 days
  • Water Temperature
  • Weather Map
  • Weather Widgets
  • user-avatar
    Login

    Hourly Weather Igls

    Today, 4 April, Saturday

    Time Temperature Precipitation Wind Pressure Humidity
    00:00 +2°C° 0.1 mm 0 mps 685 mmHg 96%
    01:00 +2°C° 0 mm 0 mps 685 mmHg 97%
    02:00 +2°C° 0 mm 0 mps 685 mmHg 96%
    03:00 +2°C° 0 mm 0 mps 685 mmHg 94%
    04:00 +2°C° 0 mm 0 mps 685 mmHg 93%
    05:00 +2°C° 0 mm 0 mps 686 mmHg 90%
    06:00 +2°C° 0 mm 0 mps 686 mmHg 87%
    07:00 +3°C° 0 mm 0 mps 687 mmHg 83%
    08:00 +5°C° 0 mm 0 mps 687 mmHg 77%
    09:00 +7°C° 0 mm 1 mps 687 mmHg 70%
    10:00 +9°C° 0 mm 1 mps 687 mmHg 63%
    11:00 +10°C° 0 mm 1 mps 687 mmHg 60%
    12:00 +11°C° 0 mm 1 mps 687 mmHg 57%
    13:00 +12°C° 0 mm 1 mps 687 mmHg 54%
    14:00 +12°C° 0 mm 1 mps 687 mmHg 54%
    15:00 +12°C° 0 mm 1 mps 687 mmHg 55%
    16:00 +12°C° 0 mm 1 mps 687 mmHg 55%
    17:00 +10°C° 0 mm 1 mps 687 mmHg 65%
    18:00 +8°C° 0 mm 1 mps 687 mmHg 75%
    19:00 +4°C° 0 mm 0 mps 687 mmHg 85%
    20:00 +5°C° 0 mm 1 mps 687 mmHg 85%
    21:00 +5°C° 0 mm 1 mps 688 mmHg 84%
    22:00 +4°C° 0 mm 1 mps 688 mmHg 84%
    23:00 +4°C° 0 mm 1 mps 688 mmHg 83%

    Tomorrow, 5 April, Sunday

    Time Temperature Precipitation Wind Pressure Humidity
    00:00 +4°C° 0 mm 1 mps 688 mmHg 82%
    01:00 +3°C° 0 mm 2 mps 689 mmHg 81%
    02:00 +3°C° 0 mm 2 mps 688 mmHg 80%
    03:00 +2°C° 0 mm 2 mps 688 mmHg 80%
    04:00 +2°C° 0 mm 2 mps 688 mmHg 79%
    05:00 +3°C° 0 mm 2 mps 688 mmHg 77%
    06:00 +4°C° 0 mm 2 mps 689 mmHg 74%
    07:00 +4°C° 0 mm 2 mps 689 mmHg 72%
    08:00 +7°C° 0 mm 2 mps 689 mmHg 65%
    09:00 +10°C° 0 mm 1 mps 689 mmHg 58%
    10:00 +13°C° 0 mm 1 mps 689 mmHg 52%
    11:00 +14°C° 0 mm 1 mps 689 mmHg 49%
    12:00 +15°C° 0 mm 1 mps 689 mmHg 45%
    13:00 +16°C° 0 mm 1 mps 689 mmHg 42%
    14:00 +16°C° 0 mm 2 mps 688 mmHg 43%
    15:00 +16°C° 0 mm 2 mps 688 mmHg 44%
    16:00 +16°C° 0 mm 2 mps 688 mmHg 46%
    17:00 +13°C° 0 mm 2 mps 687 mmHg 56%
    18:00 +10°C° 0 mm 2 mps 687 mmHg 67%
    19:00 +7°C° 0 mm 2 mps 687 mmHg 77%
    20:00 +7°C° 0 mm 2 mps 687 mmHg 79%
    21:00 +5°C° 0 mm 3 mps 688 mmHg 80%
    22:00 +4°C° 0 mm 3 mps 688 mmHg 82%
    23:00 +4°C° 0 mm 3 mps 688 mmHg 84%

    Day after tomorrow, 6 April, Monday

    Time Temperature Precipitation Wind Pressure Humidity
    00:00 +4°C° 0 mm 3 mps 688 mmHg 85%
    01:00 +4°C° 0 mm 3 mps 688 mmHg 86%
    02:00 +3°C° 0 mm 3 mps 688 mmHg 86%
    03:00 +3°C° 0 mm 3 mps 688 mmHg 86%
    04:00 +3°C° 0 mm 3 mps 688 mmHg 86%
    05:00 +5°C° 0 mm 2 mps 688 mmHg 83%
    06:00 +5°C° 0 mm 2 mps 689 mmHg 79%
    07:00 +5°C° 0 mm 2 mps 689 mmHg 76%
    08:00 +8°C° 0 mm 2 mps 689 mmHg 66%
    09:00 +12°C° 0 mm 2 mps 689 mmHg 56%
    10:00 +14°C° 0 mm 1 mps 690 mmHg 46%
    11:00 +15°C° 0 mm 1 mps 690 mmHg 42%
    12:00 +16°C° 0 mm 1 mps 690 mmHg 38%
    13:00 +19°C° 0 mm 1 mps 690 mmHg 35%
    14:00 +18°C° 0 mm 1 mps 690 mmHg 36%
    15:00 +18°C° 0 mm 1 mps 689 mmHg 37%
    16:00 +18°C° 0 mm 1 mps 689 mmHg 38%
    17:00 +14°C° 0 mm 1 mps 689 mmHg 50%
    18:00 +12°C° 0 mm 1 mps 689 mmHg 61%
    19:00 +9°C° 0 mm 1 mps 688 mmHg 73%
    20:00 +8°C° 0 mm 1 mps 689 mmHg 74%
    21:00 +8°C° 0 mm 1 mps 690 mmHg 75%
    22:00 +7°C° 0 mm 1 mps 690 mmHg 77%
    23:00 +7°C° 0 mm 1 mps 690 mmHg 77%

    7 April, Tuesday

    Time Temperature Precipitation Wind Pressure Humidity
    00:00 +7°C° 0 mm 1 mps 690 mmHg 78%
    01:00 +7°C° 0 mm 1 mps 691 mmHg 79%
    02:00 +6°C° 0 mm 1 mps 691 mmHg 79%
    03:00 +6°C° 0 mm 1 mps 691 mmHg 79%
    04:00 +6°C° 0 mm 1 mps 691 mmHg 79%
    05:00 +7°C° 0 mm 1 mps 691 mmHg 77%
    06:00 +8°C° 0 mm 1 mps 691 mmHg 75%
    07:00 +9°C° 0 mm 1 mps 692 mmHg 74%
    08:00 +11°C° 0 mm 1 mps 692 mmHg 67%
    09:00 +13°C° 0 mm 1 mps 692 mmHg 61%
    10:00 +15°C° 0 mm 1 mps 692 mmHg 54%
    11:00 +16°C° 0 mm 1 mps 692 mmHg 52%
    12:00 +16°C° 0 mm 1 mps 692 mmHg 49%
    13:00 +18°C° 0 mm 1 mps 692 mmHg 47%
    14:00 +17°C° 0 mm 2 mps 692 mmHg 49%
    15:00 +17°C° 0 mm 2 mps 691 mmHg 51%
    16:00 +16°C° 0 mm 2 mps 691 mmHg 53%
    17:00 +14°C° 0 mm 1 mps 691 mmHg 65%
    18:00 +12°C° 0 mm 1 mps 691 mmHg 77%
    19:00 +9°C° 0 mm 0 mps 690 mmHg 89%
    20:00 +9°C° 0 mm 1 mps 691 mmHg 90%
    21:00 +9°C° 0 mm 1 mps 691 mmHg 91%
    22:00 +9°C° 0 mm 1 mps 691 mmHg 93%
    23:00 +8°C° 0 mm 1 mps 691 mmHg 93%

    8 April, Wednesday

    Time Temperature Precipitation Wind Pressure Humidity
    00:00 +8°C° 0 mm 1 mps 691 mmHg 93%
    01:00 +8°C° 0 mm 1 mps 691 mmHg 93%
    02:00 +8°C° 0 mm 1 mps 691 mmHg 92%
    03:00 +7°C° 0 mm 1 mps 691 mmHg 92%
    04:00 +7°C° 0 mm 1 mps 691 mmHg 91%
    05:00 +8°C° 0 mm 1 mps 691 mmHg 88%
    06:00 +9°C° 0 mm 1 mps 691 mmHg 85%
    07:00 +9°C° 0 mm 0 mps 691 mmHg 82%
    08:00 +12°C° 0 mm 1 mps 691 mmHg 74%
    09:00 +14°C° 0 mm 1 mps 691 mmHg 66%
    10:00 +16°C° 0 mm 1 mps 691 mmHg 59%
    11:00 +16°C° 0.1 mm 1 mps 691 mmHg 57%
    12:00 +18°C° 0.1 mm 1 mps 691 mmHg 56%
    13:00 +18°C° 0.1 mm 1 mps 690 mmHg 54%
    14:00 +16°C° 0.4 mm 1 mps 690 mmHg 59%
    15:00 +16°C° 0.4 mm 2 mps 690 mmHg 64%
    16:00 +15°C° 0.4 mm 2 mps 689 mmHg 69%
    17:00 +14°C° 0.4 mm 1 mps 689 mmHg 77%
    18:00 +12°C° 0.4 mm 1 mps 689 mmHg 85%
    19:00 +9°C° 0.4 mm 0 mps 689 mmHg 93%
    20:00 +9°C° 0.1 mm 0 mps 689 mmHg 93%
    21:00 +9°C° 0.1 mm 1 mps 689 mmHg 93%
    22:00 +9°C° 0.1 mm 1 mps 690 mmHg 93%
    23:00 +9°C° 0 mm 1 mps 690 mmHg 93%

    9 April, Thursday

    Time Temperature Precipitation Wind Pressure Humidity
    00:00 +9°C° 0 mm 1 mps 690 mmHg 93%
    01:00 +9°C° 0 mm 1 mps 690 mmHg 93%
    02:00 +8°C° 0 mm 1 mps 690 mmHg 93%
    03:00 +8°C° 0 mm 1 mps 689 mmHg 92%
    04:00 +7°C° 0 mm 1 mps 689 mmHg 92%
    05:00 +8°C° 0 mm 1 mps 689 mmHg 90%
    06:00 +9°C° 0 mm 1 mps 690 mmHg 88%
    07:00 +10°C° 0 mm 1 mps 690 mmHg 86%
    08:00 +12°C° 0 mm 1 mps 690 mmHg 78%
    09:00 +14°C° 0 mm 1 mps 690 mmHg 70%
    10:00 +16°C° 0 mm 1 mps 690 mmHg 62%
    11:00 +18°C° 0 mm 1 mps 690 mmHg 57%
    12:00 +19°C° 0 mm 1 mps 690 mmHg 51%
    13:00 +19°C° 0 mm 1 mps 689 mmHg 45%
    14:00 +18°C° 0.1 mm 2 mps 689 mmHg 46%
    15:00 +18°C° 0.1 mm 2 mps 689 mmHg 47%
    16:00 +18°C° 0.1 mm 2 mps 688 mmHg 48%
    17:00 +15°C° 0.2 mm 1 mps 688 mmHg 59%
    18:00 +13°C° 0.2 mm 1 mps 688 mmHg 71%
    19:00 +11°C° 0.2 mm 1 mps 687 mmHg 83%
    20:00 +10°C° 0 mm 1 mps 687 mmHg 83%
    21:00 +10°C° 0 mm 1 mps 688 mmHg 83%
    22:00 +8°C° 0 mm 2 mps 688 mmHg 84%
    23:00 +8°C° 0 mm 2 mps 688 mmHg 84%
    Show more